This demonstration page uses our WeatherBlox Daily Observations layout. Learn more.

Left ArrowRight Arrow

39.01783, -85.05884

Hourly Observations for January 10, 2020

Temp ( °F °C ) Dew Point ( °F °C ) Humidity (%) Winds ( mph kmh ) Pressure ( in mb ) Visibility ( mi km ) Precip ( " mm )
12:52 am 00:52 Cloudy 52 11.1 32 0 47 47 S 10 17 30.18 1022 10 16 0.00 0.00
1:52 am 01:52 Cloudy 52 11.1 34 1.1 50 50 S 12 19 30.17 1022 10 16 0.00 0.00
2:52 am 02:52 Cloudy with Light Rain 53 11.7 38 3.3 57 57 S 10 17 30.20 1023 10 16 0.00 0.00
3:52 am 03:52 Cloudy with Light Rain 53 11.7 42 5.6 66 66 SSW 8 13 30.20 1023 10 16 0.00 0.00
4:52 am 04:52 Cloudy with Light Rain 54 12.2 42 5.6 64 64 SSW 7 11 30.21 1023 10 16 0.00 0.00
5:52 am 05:52 Cloudy with Light Rain 52 11.1 44 6.7 75 75 Calm 30.22 1023 8 13 0.02 0.51
6:52 am 06:52 Cloudy with Light Rain 50 10 44 6.7 80 80 SSE 7 11 30.23 1024 9 14 0.01 0.25
7:52 am 07:52 Cloudy 51 10.6 44 6.7 77 77 S 10 17 30.21 1023 10 16 0.00 0.00
8:52 am 08:52 Cloudy with Rain 52 11.1 45 7.2 77 77 WSW 3 6 30.24 1024 4 6 0.00 0.00
9:52 am 09:52 Cloudy with Light Rain 50 10 46 7.8 86 86 W 6 9 30.28 1025 7 11 0.04 1.02
10:52 am 10:52 Cloudy with Light Rain 52 11.1 48 8.9 86 86 S 7 11 30.25 1024 6 10 0.11 2.79
11:52 am 11:52 Cloudy with Light Rain 54 12.2 49 9.4 83 83 S 13 20 30.22 1023 10 16 0.06 1.52
12:52 pm 12:52 Cloudy 55 12.8 50 10 83 83 S 7 11 30.19 1023 10 16 0.01 0.25
1:52 pm 13:52 Cloudy 59 15 50 10 72 72 S 14 22 30.15 1021 10 16 0.00 0.00
2:52 pm 14:52 Cloudy 60 15.6 50 10 70 70 S 8 13 30.16 1021 10 16 0.00 0.00
3:52 pm 15:52 Cloudy with Light Rain 60 15.6 51 10.6 72 72 S 15 24 30.15 1021 9 14 0.02 0.51
4:52 pm 16:52 Cloudy with Light Rain 58 14.4 52 11.1 81 81 S 8 13 30.15 1021 7 11 0.00 0.00
5:15 pm 17:15 Cloudy with Rain 56 13.3 52 11.1 87 87 S 6 9 30.16 1021 3 5 0.01 0.25
5:52 pm 17:52 Cloudy with Light Rain 57 13.9 52 11.1 83 83 S 7 11 30.15 1021 5 8 0.05 1.27
6:52 pm 18:52 Cloudy with Light Rain 57 13.9 53 11.7 87 87 WSW 5 7 30.15 1021 6 10 0.11 2.79
7:52 pm 19:52 Cloudy with Light Rain 55 12.8 52 11.1 90 90 S 7 11 30.13 1020 8 13 0.04 1.02
8:52 pm 20:52 Cloudy with Rain 57 13.9 53 11.7 87 87 SSE 17 28 30.10 1019 6 10 0.12 3.05
9:52 pm 21:52 Cloudy with Light Rain 56 13.3 53 11.7 90 90 S 16 26 30.09 1019 5 8 0.05 1.27
10:52 pm 22:52 Cloudy 55 12.8 52 11.1 90 90 SE 12 19 30.04 1017 10 16 0.07 1.78
11:52 pm 23:52 Cloudy 56 13.3 51 10.6 84 84 SE 13 20 30.01 1016 10 16 0.00 0.00

Powered by AerisWeather